Flag for Italy Weather past 2 weeks in Modena, Italy

Now
57 °F

Passing clouds.


Feels Like: 54 °F
Forecast: 47 / 62 °F
Wind: 16 mph from Northwest

Location: Bologna / Borgo Panigale

Current Time: Oct 22, 2014 at 8:29:09 AM

Latest Report: Oct 22, 2014 at 7:50 AM


Visibility: N/A

Pressure: 29.74 "Hg

Humidity: 36%

Dew point: 30 °F

Location of ModenaLocation

Historic Weather in Modena — Graph

°F

Modena temperature yesterday

Maximum temperature yesterday: 75 °F (at 1:20 PM)
Minimum temperature yesterday: 63 °F (at 4:20 AM)
Average temperature yesterday: 68 °F

Past Weeks' High & Low Weather Summary

 TemperatureHumidityPressure
High81 °F (Oct 13, 12:50 PM)100% (Oct 9, 5:20 AM)30.30 "Hg (Oct 9, 5:20 AM)
Low55 °F (Oct 7, 7:20 AM)27% (Oct 22, 5:50 AM)29.53 "Hg (Oct 22, 1:50 AM)
Average66 °F87%30.00 "Hg
* Reported Oct 7 7:20 AM — Oct 22 7:20 AM, Modena, Weather by CustomWeather, © 2014

Note: Actual official high and low records may vary slightly from our data, if they occured in-between our weather recording intervals... More about our weather records

Advertising

Modena weather history for previous 24 hours

 ConditionsComfort  
Time TempWeatherWind HumidityBarometerVisibility
7:20 AM
Oct 22
59 °FPassing clouds.18 mph34%29.71 "HgN/A
6:50 AM61 °FClear.25 mph29%29.68 "Hg10 mi
6:20 AM63 °FClear.28 mph27%29.65 "Hg10 mi
5:50 AM63 °FPassing clouds.29 mph27%29.65 "HgN/A
5:20 AM64 °FPassing clouds.28 mph32%29.62 "HgN/A
4:50 AM64 °FPassing clouds.28 mph43%29.59 "HgN/A
4:20 AM66 °FPassing clouds.26 mph56%29.59 "HgN/A
3:50 AM64 °FPassing clouds.21 mph88%29.56 "Hg5 mi
3:20 AM64 °FClear.17 mph83%29.56 "Hg10 mi
2:50 AM63 °FClear.9 mph88%29.56 "Hg10 mi
2:20 AM61 °FClear.8 mph94%29.53 "Hg10 mi
1:50 AM61 °FClear.7 mph94%29.53 "Hg10 mi
1:20 AM61 °FPassing clouds.5 mph94%29.56 "HgN/A
12:50 AM61 °FClear.1 mph94%29.56 "Hg10 mi
12:20 AM61 °FClear.No wind88%29.59 "Hg10 mi
11:50 PM
Oct 21
63 °FClear.2 mph94%29.59 "Hg10 mi
11:20 PM64 °FClear.2 mph83%29.62 "Hg10 mi
10:50 PM64 °FClear.5 mph83%29.65 "Hg10 mi
10:20 PM64 °FPassing clouds.3 mph83%29.65 "HgN/A
9:50 PM66 °FClear.3 mph78%29.68 "Hg10 mi
9:20 PM68 °FClear.5 mph78%29.68 "Hg10 mi
8:50 PM66 °FClear.3 mph83%29.71 "Hg10 mi
8:20 PM68 °FClear.3 mph78%29.71 "Hg10 mi
7:50 PM68 °FClear.6 mph78%29.74 "Hg10 mi
7:20 PM68 °FPassing clouds.6 mph78%29.74 "HgN/A
6:50 PM68 °FPassing clouds.6 mph78%29.77 "HgN/A
6:20 PM72 °FPassing clouds.5 mph69%29.77 "HgN/A
5:50 PM73 °FSunny.5 mph69%29.77 "Hg10 mi
5:20 PM75 °FSunny.5 mph65%29.80 "Hg10 mi
4:50 PM75 °FPassing clouds.6 mph65%29.80 "HgN/A
4:20 PM75 °FPassing clouds.6 mph65%29.80 "HgN/A
3:50 PM75 °FPassing clouds.7 mph65%29.80 "HgN/A
3:20 PM75 °FPassing clouds.5 mph61%29.83 "HgN/A
2:50 PM75 °FPassing clouds.5 mph61%29.83 "HgN/A
2:20 PM75 °FPassing clouds.3 mph61%29.86 "HgN/A
1:50 PM75 °FSunny.2 mph61%29.86 "Hg10 mi
1:20 PM75 °FPassing clouds.3 mph61%29.89 "HgN/A
12:50 PM73 °FPassing clouds.3 mph65%29.92 "HgN/A
12:20 PM73 °FSunny.2 mph65%29.92 "Hg10 mi
11:50 AM72 °FPassing clouds.3 mph69%29.92 "HgN/A
11:20 AM70 °FPassing clouds.3 mph73%29.95 "HgN/A
10:50 AM70 °FPassing clouds.3 mph73%29.95 "HgN/A
10:20 AM66 °FSunny.2 mph83%29.95 "Hg10 mi
9:50 AM66 °FSunny.2 mph78%29.95 "Hg10 mi
9:20 AM64 °FSunny.6 mph83%29.92 "Hg10 mi
8:50 AM64 °FPassing clouds.6 mph83%29.92 "HgN/A
8:20 AM63 °FPassing clouds.10 mph88%29.92 "HgN/A
Weather by CustomWeather, © 2014

See weather overviewHow to use our weather pages